GW4477 Weather Reports


time (UTC)temp
C
wind
direction
speed
KPH
gust
KPH
rain 1hr
cm
rain 24hr
cm
rain mn
cm
humidity
%
barometer
mb
20260510063022 14 341 9.7 22.5 0.00 0.00 0.00 62 1019.0
20260510061531 14 23 9.7 20.9 0.00 0.00 0.00 61 1018.3
20260510060042 14 46 12.9 19.3 0.00 0.00 0.00 61 1018.3
20260510054516 15 57 11.3 22.5 0.00 0.00 0.00 64 1018.2
20260510053003 15 98 4.8 24.1 0.00 0.00 0.00 65 1016.5
20260510051503 15 111 6.4 19.3 0.00 0.00 0.00 65 1015.9
20260510050009 15 100 6.4 19.3 0.00 0.00 0.00 65 1015.7
20260510044514 15 107 6.4 19.3 0.00 0.00 0.00 64 1015.3
20260510043018 15 61 6.4 24.1 0.00 0.00 0.00 63 1015.1
20260510041513 16 112 8.0 20.9 0.00 0.00 0.00 61 1014.6
20260510040008 16 107 4.8 17.7 0.00 0.00 0.00 59 1014.0
20260510034509 16 71 4.8 12.9 0.00 0.00 0.00 58 1014.2
20260510033012 17 67 4.8 14.5 0.00 0.00 0.00 56 1013.8
20260510031518 17 111 6.4 17.7 0.00 0.00 0.00 54 1013.1
20260510030021 18 33 6.4 17.7 0.00 0.00 0.00 52 1012.9
20260510024510 18 59 8.0 16.1 0.00 0.00 0.00 51 1012.5
20260510023030 18 59 8.0 22.5 0.00 0.00 0.00 49 1012.0
20260510021520 19 42 9.7 22.5 0.00 0.00 0.00 48 1011.6
20260510020022 20 67 9.7 27.4 0.00 0.00 0.00 46 1011.4
20260510014508 21 311 11.3 25.7 0.00 0.00 0.00 43 1010.9
20260510013014 23 26 14.5 22.5 0.00 0.00 0.00 40 1010.4
20260510011521 25 10 9.7 19.3 0.00 0.00 0.00 29 1009.8
20260510010026 26 349 8.0 16.1 0.00 0.00 0.00 25 1009.2
20260510004522 27 309 11.3 20.9 0.00 0.00 0.00 24 1008.9
20260510003008 28 341 12.9 22.5 0.00 0.00 0.00 24 1008.8
20260510001517 28 340 11.3 24.1 0.00 0.00 0.00 23 1008.8
20260510000020 29 329 12.9 22.5 0.00 0.00 0.00 22 1008.8
20260509234523 29 351 16.1 29.0 0.00 0.00 0.00 22 1008.7
20260509233028 30 44 14.5 27.4 0.00 0.00 0.00 21 1008.7
20260509231513 30 9 12.9 25.7 0.00 0.00 0.00 21 1008.3
20260509230016 30 11 8.0 19.3 0.00 0.00 0.00 21 1008.1
20260509224522 31 335 11.3 17.7 0.00 0.00 0.00 21 1008.1
20260509223028 31 9 12.9 17.7 0.00 0.00 0.00 21 1008.2
20260509221531 31 22 12.9 25.7 0.00 0.00 0.00 20 1008.2
20260509220016 31 352 8.0 19.3 0.00 0.00 0.00 20 1008.2
20260509214520 31 346 9.7 17.7 0.00 0.00 0.00 22 1008.1
20260509213026 31 286 6.4 14.5 0.00 0.00 0.00 21 1008.2
20260509211549 31 321 8.0 19.3 0.00 0.00 0.00 21 1008.2
20260509210026 31 294 11.3 17.7 0.00 0.00 0.00 21 1008.3
20260509204503 32 306 6.4 20.9 0.00 0.00 0.00 23 1008.3
20260509203006 31 331 3.2 25.7 0.00 0.00 0.00 24 1008.5
20260509201505 31 305 1.6 8.0 0.00 0.00 0.00 24 1008.6
20260509200012 30 291 1.6 14.5 0.00 0.00 0.00 27 1008.7
20260509194505 31 343 6.4 22.5 0.00 0.00 0.00 26 1009.0
20260509193006 30 269 8.0 17.7 0.00 0.00 0.00 26 1009.1
20260509191507 30 218 8.0 22.5 0.00 0.00 0.00 26 1009.4
20260509190012 29 257 8.0 22.5 0.00 0.00 0.00 27 1009.5
20260509184516 28 171 8.0 24.1 0.00 0.00 0.00 27 1010.0
20260509183011 28 290 11.3 24.1 0.00 0.00 0.00 27 1010.1
20260509181505 28 196 9.7 29.0 0.00 0.00 0.00 29 1010.4
20260509180008 27 283 12.9 27.4 0.00 0.00 0.00 29 1010.9
20260509174516 27 259 11.3 29.0 0.00 0.00 0.00 30 1011.4
20260509173021 27 268 11.3 25.7 0.00 0.00 0.00 31 1011.5
20260509171505 26 220 9.7 17.7 0.00 0.00 0.00 31 1011.7
20260509170010 26 240 8.0 22.5 0.00 0.00 0.00 30 1012.1
20260509164512 26 229 11.3 32.2 0.00 0.00 0.00 32 1011.9
20260509163023 25 215 9.7 19.3 0.00 0.00 0.00 34 1012.2
20260509161503 24 246 9.7 19.3 0.00 0.00 0.00 37 1012.4
20260509160008 23 215 9.7 17.7 0.00 0.00 0.00 38 1012.7
20260509154512 23 220 11.3 22.5 0.00 0.00 0.00 40 1012.9
20260509153020 22 232 9.7 19.3 0.00 0.00 0.00 42 1013.0
20260509151522 21 286 11.3 17.7 0.00 0.00 0.00 43 1013.3
20260509150005 20 249 6.4 16.1 0.00 0.00 0.00 46 1013.4
20260509144512 19 306 8.0 17.7 0.00 0.00 0.00 48 1013.5
20260509143017 18 261 8.0 17.7 0.00 0.00 0.00 49 1013.8
20260509141526 17 242 4.8 12.9 0.00 0.00 0.00 52 1013.8
20260509140022 16 206 6.4 19.3 0.00 0.00 0.00 54 1014.0
20260509134509 15 249 6.4 14.5 0.00 0.00 0.00 59 1014.0
20260509133014 14 282 4.8 14.5 0.00 0.00 0.00 61 1014.0
20260509131531 12 266 3.2 12.9 0.00 0.00 0.00 65 1013.8
20260509130023 11 264 4.8 11.3 0.00 0.00 0.00 71 1013.8
20260509124528 9 257 0.0 3.2 0.00 0.00 0.00 80 1013.7
20260509123012 9 281 0.0 3.2 0.00 0.00 0.00 80 1013.6
20260509121516 8 293 0.0 0.0 0.00 0.00 0.00 81 1013.5
20260509120020 8 293 0.0 1.6 0.00 0.00 0.00 79 1013.4
20260509114502 9 267 0.0 3.2 0.00 0.00 0.00 77 1013.3
20260509113002 10 328 0.0 4.8 0.00 0.00 0.00 73 1013.1
20260509111504 11 257 0.0 3.2 0.00 0.00 0.00 68 1012.9
20260509110002 11 243 1.6 4.8 0.00 0.00 0.00 68 1012.7
20260509104503 11 241 1.6 3.2 0.00 0.00 0.00 66 1012.7
20260509103002 11 246 1.6 4.8 0.00 0.00 0.00 63 1012.9
20260509101503 12 229 1.6 6.4 0.00 0.00 0.00 61 1013.0
20260509100004 12 212 1.6 9.7 0.00 0.00 0.00 59 1012.9
20260509094505 12 197 1.6 9.7 0.00 0.00 0.00 60 1013.1
20260509093003 12 204 6.4 9.7 0.00 0.00 0.00 59 1013.1
20260509091505 12 227 4.8 9.7 0.00 0.00 0.00 60 1013.3
20260509090004 12 237 6.4 9.7 0.00 0.00 0.00 61 1013.2
20260509084507 12 224 6.4 11.3 0.00 0.00 0.00 60 1013.1
20260509083004 11 213 3.2 9.7 0.00 0.00 0.00 61 1012.9
20260509081505 11 222 3.2 6.4 0.00 0.00 0.00 62 1013.3
20260509080004 12 223 3.2 9.7 0.00 0.00 0.00 61 1013.5
20260509074504 11 232 4.8 8.0 0.00 0.00 0.00 62 1013.5
20260509073006 11 224 3.2 6.4 0.00 0.00 0.00 62 1013.6
20260509071504 11 211 3.2 8.0 0.00 0.00 0.00 62 1013.6
20260509070005 11 211 1.6 6.4 0.00 0.00 0.00 63 1013.6
20260509064504 11 213 0.0 3.2 0.00 0.00 0.00 64 1013.7